Location: Bukit Setapoh
(2.2500°N, 113.8000°E)
Time: 00:02:17
(UTC+00:00)

CZ-4 R/B - Pass Details

Date: 25 July 2021
Orbit: 529 x 598 km, 97.8° (Epoch: 22 September)

Event Time Altitude Azimuth Distance (km) Brightness Sun altitude
Exits shadow 11:40:43 - 173° (S) 2,257 4.2 -15.5°
Reaches altitude 10° 11:41:40 10° 175° (S) 1,867 3.8 -15.7°
Maximum altitude 11:45:42 71° 258° (WSW) 611 1.6 -16.7°
Drops below altitude 10° 11:49:48 10° 343° (NNW) 1,898 4.6 -17.6°
Sets 11:51:58 0° 345° (NNW) 2,804 5.5 -18.1°
